sat.trackr.live / text

‹ back to catalog

STARLINK-11621 [DTC]

NORAD 63273 · 2025-053J

PAYLOAD ACTIVE UNKNOWN

§ Identity

Operator
Country
US
Launch date
2025-03-15
Launch site
AFETR
Launch vehicle
Mass (kg)
RCS (m²)

Purposes: comms

External: N2YO · Heavens-Above · Gunter

§ Orbital elements

Epoch: 2026-05-25T01:12:33.969888Z

Period
91.67 min
Inclination
43.0002°
Eccentricity
0.0001424
Mean motion
15.70820718 rev/d
Perigee alt
355.6 km
Apogee alt
357.5 km
Semi-major
6,734.7 km
B*
1.1501e-3
RAAN
11.5408°
Arg perigee
248.7947°
Mean anomaly
111.2769°
Rev number
6,968

§ Raw data

STARLINK-11621 [DTC]1 63273U 25053J   26145.05039317  .00149685  00000+0  11501-2 0  99942 63273  43.0002  11.5408 0001424 248.7947 111.2769 15.70820718 69688

JSON: /api/v1/satellites/63273 · /tle

For live sub-satellite position, see the globe view (requires WebGL).

§ Visibility from observer

Set your observer location to see the next 7 days of passes ≥ 10°. The values pass through the URL so the page stays shareable.

No JS? Fill the form by hand. The geolocation button needs JavaScript.